• Join FlightAware (Why Join?)
  • Login
  • US Flag GB Flag 
18:23 EST


 

Airport Tracker/Info


-or-


 

Live Flight TrackerFlight Track Log ✈ SKW6446 ✈ 03-May-2013 ✈ KLAX - KSMX

Flight Track Log - Related Links

Times and Time Zones

All times are in EDT time to prevent confusion due to time zone crossing. See the SKW6446 flight status page for this flight to view local times or setup timezone preferences in your user account.

Time Position Orientation Groundspeed Altitude Reporting Facility
EDT Latitude Longitude Course Direction KTS MPH feet Rate Location/Type
20:47 33.9486 -118.4622 296° West 140 161 2,200  Level Los Angeles Center
20:48 33.9644 -118.5189 289° West 177 204 3,200 1,020 Climbing Los Angeles Center
20:49 33.9800 -118.5728 289° West 197 227 4,300 1,440 Climbing Los Angeles Center
20:50 34.0156 -118.6949 284° West  Level FlightAware Approximate
20:50 34.0039 -118.6564 289° West 212 244 6,200  Level Los Angeles Center
20:51 34.0379 -118.7953 285° West  Level FlightAware Approximate
20:51 34.0242 -118.7269 289° West 207 238 7,900  Level Los Angeles Center
20:52 34.0670 -118.8926 296° West  Level FlightAware Approximate
20:52 34.0422 -118.7911 289° West 206 237 9,000  Level Los Angeles Center
20:53 34.0653 -118.8667 290° West 239 275 9,000  Level Los Angeles Center
20:54 34.0903 -118.9483 290° West 259 298 9,000 60 Level Los Angeles Center
20:55 34.1131 -119.0344 288° West 268 308 9,200 480 Climbing Los Angeles Center
20:56 34.1464 -119.1078 299° West 251 289 10,000 720 Climbing Los Angeles Center
20:57 34.1928 -119.1906 304° West 249 287 10,800 240 Climbing Los Angeles Center
20:58 34.2358 -119.2644 305° West 270 311 10,600 -300 Descending Los Angeles Center
20:59 34.2750 -119.3342 304° West 245 282 10,200 -540 Descending Los Angeles Center
21:00 34.3058 -119.3919 303° West 192 221 9,600 -720 Descending Los Angeles Center
21:01 34.3306 -119.4447 300° West 180 207 8,800 -360 Descending Los Angeles Center
21:02 34.3517 -119.4894 300° West 221 254 9,100 240 Climbing Los Angeles Center
21:02 34.3722 -119.5261 304° West 233 268 9,100 -120 Level Los Angeles Center
21:03 34.4006 -119.5725 307° West 255 293 9,000 -120 Descending Los Angeles Center
21:03 34.4164 -119.5944 311° West 254 292 9,000  Level Los Angeles Center
21:04 34.4386 -119.6358 303° West 262 302 9,000  Level Los Angeles Center
21:05 34.4556 -119.6719 300° West 265 305 9,000 -840 Level Los Angeles Center
21:05 34.4803 -119.7161 304° West 270 311 8,200 -1,020 Descending Los Angeles Center
21:06 34.4961 -119.7483 301° West 269 310 8,000 -240 Descending Los Angeles Center
21:06 34.5189 -119.7925 302° West 251 289 8,000  Level Los Angeles Center
21:07 34.5311 -119.8181 300° West 250 288 8,000  Level Los Angeles Center
21:07 34.5506 -119.8578 301° West 224 258 8,000  Level Los Angeles Center
21:08 34.5558 -119.8694 299° West 230 265 8,000 -360 Level Los Angeles Center
21:08 34.5947 -119.9400 304° West 219 252 7,600 -540 Descending Los Angeles Center
21:09 34.6031 -119.9533 307° West 224 258 7,500 -540 Descending Los Angeles Center
21:09 34.6356 -120.0081 306° West 230 265 7,000 -600 Descending Los Angeles Center
21:11 34.6806 -120.0850 305° West 231 266 6,300 -840 Descending Los Angeles Center
21:12 34.7217 -120.1517 307° West 234 269 5,100 -1,080 Descending Los Angeles Center
21:13 34.7578 -120.2139 305° West 229 264 4,100 -1,080 Descending Los Angeles Center
21:13 34.7797 -120.2519 305° West 210 242 3,300 -1,020 Descending Los Angeles Center
21:14 34.7886 -120.2694 302° West 208 239 3,100 -300 Descending Los Angeles Center
21:15 34.8053 -120.3233 291° West 179 206 2,900 -480 Descending Los Angeles Center
21:16 34.8239 -120.3661 298° West 159 183 2,200 -780 Descending Los Angeles Center
21:17 34.8531 -120.4011 315° West 137 158 1,500 -720 Descending Los Angeles Center